Home   Weather   Syktyvkar   Past weeks
Flag for Russia

Past Weather in Syktyvkar, Russia — Yesterday and Last 2 Weeks

Now
45 °F

Passing clouds.


Feels Like: 41 °F
Forecast: 40 / 26 °F
Wind: 6 mph from Southwest

Location: Syktyvkar Airport

Current Time: Apr 4, 2020 at 6:23:37 pm

Latest Report: Apr 4, 2020 at 6:00 pm


Visibility: N/A

Pressure: 29.68 "Hg

Humidity: 37%

Dew Point: 19 °F

Location of SyktyvkarLocation

Past Weather in Syktyvkar — Graph

°F

Syktyvkar Temperature Yesterday

Maximum temperature yesterday: 41 °F (at 10:00 am)
Minimum temperature yesterday: 25 °F (at 4:00 am)
Average temperature yesterday: 36 °F

High & Low Weather Summary for the Past Weeks

 TemperatureHumidityPressure
High48 °F (Mar 28, 1:30 pm)93% (Apr 3, 2:00 am)30.63 "Hg (Apr 3, 2:00 am)
Low7 °F (Mar 23, 3:30 am)29% (Mar 24, 1:00 pm)29.24 "Hg (Apr 2, 9:00 am)
Average30 °F60%29.93 "Hg
* Reported Mar 20 5:00 pm — Apr 4 5:00 pm, Syktyvkar. Weather by CustomWeather, © 2020

Note: Actual official high and low records may vary slightly from our data, if they occured in-between our weather recording intervals... More about our weather records

Syktyvkar Weather History for the Previous 24 Hours

Scroll right to see more
 ConditionsComfort  
Time TempWeatherWind HumidityBarometerVisibility
5:00 pm
Sat, Apr 4
46 °FPassing clouds.8 mph34%29.65 "HgN/A
4:30 pm46 °FScattered clouds.3 mph46%29.65 "HgN/A
4:00 pm45 °FScattered clouds.6 mph49%29.65 "HgN/A
3:30 pm45 °FScattered clouds.8 mph49%29.62 "HgN/A
3:00 pm45 °FScattered clouds.10 mph49%29.62 "HgN/A
2:30 pm45 °FPartly sunny.8 mph49%29.62 "HgN/A
2:00 pm45 °FSprinkles. Scattered clouds.10 mph49%29.59 "HgN/A
1:30 pm43 °FScattered clouds.13 mph53%29.59 "HgN/A
1:00 pm43 °FPartly sunny.10 mph49%29.59 "HgN/A
12:30 pm43 °FPartly sunny.10 mph49%29.59 "HgN/A
12:00 pm45 °FPassing clouds.8 mph49%29.59 "HgN/A
11:30 am41 °FSunny.10 mph61%29.59 "Hg10 mi
11:00 am41 °FSunny.10 mph66%29.59 "Hg10 mi
10:30 am39 °FPassing clouds.8 mph70%29.59 "HgN/A
10:00 am37 °FSprinkles. Mostly cloudy.10 mph75%29.62 "HgN/A
9:30 am39 °FMostly cloudy.13 mph65%29.59 "HgN/A
9:00 am41 °FSprinkles. Partly sunny.13 mph57%29.59 "HgN/A
8:30 am43 °FSunny.10 mph46%29.56 "Hg10 mi
8:00 am43 °FSunny.10 mph49%29.56 "Hg10 mi
7:30 am41 °FSunny.10 mph53%29.56 "Hg10 mi
7:00 am41 °FSunny.10 mph53%29.56 "Hg10 mi
6:30 am41 °FSunny.10 mph53%29.56 "Hg10 mi
6:00 am39 °FSunny.10 mph56%29.56 "Hg10 mi
5:30 am39 °FSunny.10 mph56%29.56 "Hg10 mi
5:00 am39 °FSunny.10 mph56%29.56 "Hg10 mi
4:30 am39 °FClear.10 mph56%29.56 "Hg10 mi
4:00 am39 °FClear.10 mph56%29.56 "Hg10 mi
3:30 am39 °FClear.10 mph56%29.56 "Hg10 mi
3:00 am41 °FClear.10 mph53%29.56 "Hg10 mi
2:30 am41 °FClear.10 mph53%29.56 "Hg10 mi
2:00 am41 °FClear.10 mph53%29.56 "Hg10 mi
1:30 am41 °FClear.13 mph57%29.56 "Hg10 mi
1:00 am39 °FClear.15 mph61%29.59 "Hg10 mi
12:30 am39 °FClear.15 mph61%29.59 "Hg10 mi
12:00 am39 °FClear.13 mph61%29.59 "Hg10 mi
11:30 pm
Fri, Apr 3
39 °FClear.15 mph61%29.59 "Hg10 mi
11:00 pm41 °FClear.17 mph57%29.59 "Hg10 mi
10:30 pm41 °FClear.15 mph57%29.62 "Hg10 mi
9:30 pm41 °FClear.13 mph57%29.62 "Hg10 mi
9:00 pm41 °FClear.13 mph57%29.62 "Hg10 mi
8:30 pm41 °FClear.17 mph57%29.62 "Hg10 mi
8:00 pm41 °FClear.17 mph57%29.62 "Hg10 mi
7:30 pm41 °FClear.17 mph57%29.62 "Hg10 mi
7:00 pm41 °FClear.15 mph57%29.62 "Hg10 mi
6:30 pm39 °FClear.15 mph61%29.59 "Hg10 mi
6:00 pm39 °FSunny.15 mph61%29.59 "Hg10 mi
Weather by CustomWeather, © 2020

See weather overview

Advertising